Location: Gwatt
(46.7204°N, 7.6223°E)
Time: 14:55:06
(UTC+00:00)

deb Explorer IX - Pass Details

Date: 22 January 2021
Orbit: 537 x 1102 km, 38.8° (Epoch: 01 March)

Event Time Altitude Azimuth Distance (km) Brightness Sun altitude
Rises 18:54:15 0° 242° (WSW) 3,535 ? -26.4°
Reaches altitude 10° 18:57:14 10° 234° (SW) 2,494 ? -27.0°
Enters shadow 19:01:54 32° 183° (S) 1,316 ? -27.8°
Maximum altitude 19:02:24 33° 172° (S) 1,287 - -27.8°
Drops below altitude 10° 19:06:53 10° 110° (ESE) 2,152 - -28.6°
Sets 19:09:17 0° 100° (E) 2,983 - -29.0°
